AirNav   Bose ProFlight Aviation Headset
 
 505 users online  

L05 Kern Valley Airport
Kernville, California, USA

GOING TO KERNVILLE?


FAA INFORMATION EFFECTIVE 13 SEPTEMBER 2018

Location

FAA Identifier: L05
Lat/Long: 35-43-41.6000N / 118-25-11.0000W
35-43.693333N / 118-25.183333W
35.7282222 / -118.4197222
(estimated)
Elevation: 2614 ft. / 796.7 m (surveyed)
Variation: 14E (1985)
From city: 3 miles S of KERNVILLE, CA
Time zone: UTC -7 (UTC -8 during Standard Time)
Zip code: 93238

Airport Operations

Airport use: Open to the public
Activation date: 07/1949
Control tower: no
ARTCC: LOS ANGELES CENTER
FSS: RANCHO MURIETA FLIGHT SERVICE STATION
NOTAMs facility: RIU (NOTAM-D service available)
Attendance: DAYLIGHT HOURS
Wind indicator: yes
Segmented circle: yes

Airport Communications

CTAF/UNICOM: 122.8

Nearby radio navigation aids

VOR radial/distance  VOR name  Freq  Var
TTEr095/31.3TULE VOR/DME109.2016E
EHFr052/36.1SHAFTER VORTAC115.4014E

Airport Services

Parking: tiedowns
Airframe service: MINOR
Powerplant service: MINOR
Bottled oxygen: NONE
Bulk oxygen: NONE

Runway Information

Runway 17/35

Dimensions: 3500 x 50 ft. / 1067 x 15 m
Surface: asphalt, in good condition
Weight bearing capacity: 
Single wheel: GROSS RWY PAVEMENT STRENGTH ESTIMATE PRVDD BY ARPT MANAGER; 12500 LBS.
RUNWAY 17  RUNWAY 35
Latitude: 35-43.980500N35-43.405333N
Longitude: 118-25.154333W118-25.211000W
Gradient: 0.2%0.2%
Traffic pattern: rightleft
Markings: basic, in good conditionbasic, in good condition
Runway end identifier lights: nono
Obstructions: 10 ft. trees, 375 ft. from runway, 100 ft. right of centerline, 17:1 slope to clearnone
RWY 35 +1 FT ROCKS O-90 FT FM EOR 50 FT L TO 80 FT R PRVDG WASHOUT PROTECTION FM LAKE; +5 FT BRUSH 180-200 FT FM EOR 0 FT L.

Airport Ownership and Management from official FAA records

Ownership: Publicly-owned
Owner: COUNTY OF KERN DEPT OF AIRPORTS
3701 WINGS WAY, SUITE 300
BAKERSFIELD, CA 93308-7026
Phone 661-391-1800
OWNED BY US FOREST SVC ON LEASE TO KERN COUNTY.
Manager: RON BREWSTER
3701 WINGS WAY, SUITE 300
BAKERSFIELD, CA 93308-7026
Phone 661-391-1824
CELL 661-747-4053.

Airport Operational Statistics

Aircraft based on the field: 10
Single engine airplanes: 10
    
Aircraft operations: avg 32/day *
54% transient general aviation
44% local general aviation
2% military
* for 12-month period ending 06 March 2018

Additional Remarks

NO NIGHT OPERATIONS.
FLY-IN CAMPGROUND ON ARPT.
FOR CD CTC JOSHUA APCH AT 661-277-3843.

Instrument Procedures

There are no published instrument procedures at L05.

Some nearby airports with instrument procedures:

KIYK - Inyokern Airport (29 nm E)
KNID - China Lake Naval Air Weapons Station (Armitage Field) (36 nm E)
KBFL - Meadows Field Airport (36 nm SW)
KPTV - Porterville Municipal Airport (36 nm NW)
L45 - Bakersfield Municipal Airport (37 nm SW)
 
Loc | Ops | Rwys | IFR | FBO | Links
Com | Nav | Svcs | Stats | Notes


 
Area around L05 (Kern Valley Airport)
 
Road maps at: MapQuest Bing Google
 
Aerial photo
WARNING: Photo may not be current or correct
Aerial photo of L05 (Kern Valley Airport)
Photo courtesy of www.MarkHoltzman.com
Photo taken 12-Nov-2017
looking west.

Do you have a better or more recent aerial photo of Kern Valley Airport that you would like to share? If so, please send us your photo.

 
Sectional chart

 
Airport distance calculator
Flying to Kern Valley Airport? Find the distance to fly.

From to L05

Sunrise and sunset
Times for 24-Sep-2018
 Local
(UTC-7)
 Zulu
(UTC)
Morning civil twilight06:1913:19
Sunrise06:4413:44
Sunset18:4701:47
Evening civil twilight19:1302:13

Current date and time
Zulu (UTC)  24-Sep-2018 10:55:20
Local (UTC-7)  24-Sep-2018 03:55:20
 
METAR
KIYK 
30nm E 
SuperAWOS
240955Z AUTO 00000KT 10SM 21/M03 A2984
KBFL 
35nm SW 
240954Z 14003KT 10SM CLR 21/07 A2983 RMK AO2 SLP093 T02110072
KTSP 
36nm S 
241035Z AUTO 28003KT 10SM CLR 14/03 A2999 RMK AO2
KPTV 
36nm NW 
240956Z AUTO 16004KT 10SM 16/08 A2983 RMK AO2 SLP107 T01560078 $
KNID 
37nm E 
240956Z AUTO 22009KT 10SM CLR 21/M01 A2983 RMK AO2 SLP080 T02061006
KDLO 
40nm W 
241035Z AUTO 00000KT 10SM CLR 16/07 A2982 RMK AO2 T01560071
KMHV 
42nm S 
241020Z AUTO 24012KT 10SM CLR 21/05 A2988 RMK A01
TAF
KBFL 
35nm SW 
240520Z 2406/2506 VRB04KT P6SM SKC FM241200 30005KT P6SM FEW250 FM250300 VRB05KT P6SM SKC
NOTAMs
Click for the latest NOTAMs
NOTAMs are issued by the DoD/FAA and will open in a separate window not controlled by AirNav.

 

 
 

Where to Eat: Catering, Restaurants, Food shops

  
 Business Name 
 
 Contact 
 
 Services / Description 
 
Distance
 
Comments
  
Airport Cafe 760-376-2852
no information available

If you are affiliated with Airport Cafe and would like to show here your services, contact info, web link, logo, and more, click here
on airport  
   2 read write
 

Would you like to see your business listed on this page?

 If your business provides an interesting product or service to pilots, flight crews, aircraft, or users of the Kern Valley Airport, you should consider listing it here.  To start the listing process, click on the button below
 
Add a business
 

Other Pages about Kern Valley Airport

Update a link
 
Copyright © AirNav, LLC. All rights reserved. Privacy Policy  Contact